This is the latest recevied weather packets stored in our database for station/object KC8UZG. If no packets are shown the sender has not sent any weather packets the latest 10 day(s).
| Time | Temp. | Humidity | Pressure | Rain* | Wind** | Luminosity | Snow |
|---|---|---|---|---|---|---|---|
| 1777487719 | 16.67° C | 85% | - | 0 mm | - | 218 W/m² | - |
| 1777487125 | 16.11° C | 86% | - | 0 mm | - | 251 W/m² | - |
| 1777486531 | 15° C | 94% | - | 0 mm | - | 436 W/m² | - |
| 1777485938 | 13.89° C | 99% | 1009 hPa | 0 mm | - | 173 W/m² | - |
| 1777485317 | 13.89° C | 99% | 1009.3 hPa | 0 mm | - | 77 W/m² | - |
| 1777484722 | 13.33° C | 99% | 1009.3 hPa | 0 mm | - | 190 W/m² | - |
| 1777484128 | 13.33° C | 99% | 1009.4 hPa | 0 mm | - | 194 W/m² | - |
| 1777483534 | 13.33° C | 99% | 1009.4 hPa | 0 mm | - | 156 W/m² | - |
| 1777482941 | 13.33° C | 99% | 1009.4 hPa | 0 mm | - | 100 W/m² | - |
| 1777482319 | 12.78° C | 99% | 1009.4 hPa | 0 mm | - | 167 W/m² | - |
| 1777481725 | 12.78° C | 99% | 1009.7 hPa | 0 mm | - | 83 W/m² | - |
| 1777481131 | 12.78° C | 99% | 1009.7 hPa | 0 mm | - | 66 W/m² | - |
| 1777480537 | 12.78° C | 99% | 1009.7 hPa | 0 mm | - | 84 W/m² | - |
| 1777479916 | 12.78° C | 99% | 1009.7 hPa | 0 mm | - | 34 W/m² | - |
| 1777479322 | 12.78° C | 99% | 1009.7 hPa | 0 mm | - | 40 W/m² | - |
| 1777478728 | 12.78° C | 99% | 1009.6 hPa | 0 mm | - | 49 W/m² | - |
| 1777478135 | 12.78° C | 99% | 1009.6 hPa | 0 mm | - | 55 W/m² | - |
| 1777477540 | 12.78° C | 99% | 1009.4 hPa | 0 mm | - | 72 W/m² | - |
| 1777476919 | 12.78° C | 99% | 1009.4 hPa | 0 mm | - | 83 W/m² | - |
| 1777476326 | 12.78° C | 99% | 1009.2 hPa | 0 mm | - | 96 W/m² | - |
| 1777475731 | 12.22° C | 99% | 1009.1 hPa | 0 mm | - | 62 W/m² | - |
| 1777475137 | 12.22° C | 99% | 1009.5 hPa | 0 mm | - | 33 W/m² | - |
| 1777474516 | 12.22° C | 99% | 1009.7 hPa | 0 mm | - | 42 W/m² | - |
| 1777473922 | 12.22° C | 99% | 1009.4 hPa | 0 mm | - | 44 W/m² | - |
| 1777473328 | 12.22° C | 99% | 1009.7 hPa | 0 mm | - | 8 W/m² | - |
* Rain latest hour (hover to see other rain measurements)
** Current wind speed in m/s (hover to see current wind gust speed)